Location: Coupvray
(48.8929°N, 2.7967°E)
Time: 10:52:27
(UTC+00:00)

COSMOS 2406 - Pass Details

Date: 14 July 2020
Orbit: 844 x 863 km, 71.0° (Epoch: 05 August)

Event Time Altitude Azimuth Distance (km) Brightness Sun altitude
Exits shadow 00:49:37 23° 153° (SSE) 1,771 4.4 -18.4°
Maximum altitude 00:52:22 35° 106° (ESE) 1,371 4.3 -18.3°
Drops below altitude 10° 00:57:31 10° 43° (NE) 2,510 6.6 -18.1°
Sets 01:00:10 0° 35° (NE) 3,449 7.8 -18.0°
